YAOGAN-10 (36834 NORAD) Tracking and Keplerian Element Data

This shows tracking and keplerian element data for the satellite.

Feedback or suggestion? Click here.




ElementValue
Catalog36834
NameYAOGAN-10
Epoch Orbit83066
Epoch Day354.32203999
Epoch Year2025
RAAN14.0864
Inclination97.9134
Eccentricity0.0001436
Argument of Perigee78.4028
Mean Anonmoly338.7117
Mean Motion14.84635511
Decay Rate1.503E-05
L11 36834U 10038A 25354.32203999 .00001503 00000+0 18419-3 0 9996
L22 36834 97.9134 14.0864 0001436 78.4028 338.7117 14.84635511830666



Live tracking and technical data element details for YAOGAN-10 (NORAD 36834). YAOGAN-10 can be tracked NOW for your location showing map with azimuth and elevation plus other details from your city location.







IsCatalogInMostPopularTable: catalog: 36834, numindb: 348
Update: records affected: 1



GetName: 36834 YAOGAN-10

Hit Count: updated at: Thu, 21 May 2026 11:52:08 GMT